Flag for China Weather past 2 weeks in Xiamen, China

Now
84 °F

Partly sunny.


Feels Like: 88 °F
Forecast: 70 / 83 °F
Wind: 6 mph from Southwest

Location: Xiamen Airport


UV Index: 7 (High)

Visibility: 6 mi


Pressure: 29.83 "Hg

Humidity: 62%

Dew point: 70 °F

Location of XiamenLocation

Historic Weather in Xiamen

°F

Xiamen temperature yesterday

Maximum temperature yesterday: 86 °F (at 2:00 PM)
Minimum temperature yesterday: 70 °F (at 2:00 AM)
Average temperature yesterday: 77 °F

Past Weeks' High & Low Weather Summary

 TemperatureHumidityPressure
High88 °F (Apr 13, 1:00 PM)100% (Apr 7, 2:00 AM)30.15 "Hg (Apr 7, 2:00 AM)
Low57 °F (Apr 5, 1:00 AM)34% (Apr 15, 11:00 AM)29.77 "Hg (Apr 12, 5:00 PM)
Average70 °F74%29.98 "Hg
* Reported Apr 4 1:00 PM — Apr 19 1:00 PM, Xiamen, Weather by CustomWeather, © 2014

Note: Actual official high and low records may vary slightly from our data, if they occured in-between our weather recording intervals... More about our weather records

Advertising

Historic Weather Conditions — Data for Previous 24 hours

 ConditionsComfort  
Time TempWeatherWind HumidityBarometerVisibility
1:00 PM
Apr 19
82 °FPartly sunny.6 mph66%29.86 "Hg5 mi
12:00 PM82 °FScattered clouds.6 mph62%29.89 "Hg4 mi
11:00 AM77 °FScattered clouds.8 mph79%29.92 "Hg4 mi
10:00 AM77 °FFog.3 mph79%29.95 "Hg3 mi
9:00 AM73 °FFog.1 mph89%29.95 "Hg2 mi
8:00 AM70 °FFog.3 mph94%29.95 "Hg2 mi
7:00 AM70 °FFog.6 mph94%29.92 "Hg1 mi
6:00 AM70 °FFog.6 mph94%29.92 "Hg2 mi
5:00 AM68 °FFog.3 mph100%29.92 "Hg2 mi
4:00 AM70 °FFog.6 mph94%29.89 "Hg2 mi
3:00 AM70 °FFog.3 mph100%29.89 "Hg3 mi
2:00 AM70 °FFog.6 mph100%29.89 "Hg3 mi
1:00 AM70 °FFog.6 mph100%29.92 "Hg2 mi
12:00 AM70 °FPassing clouds.8 mph100%29.92 "Hg4 mi
11:00 PM
Apr 18
72 °FClear.6 mph94%29.92 "Hg4 mi
10:00 PM72 °FClear.3 mph94%29.92 "Hg5 mi
9:00 PM75 °FClear.1 mph83%29.92 "Hg10 mi
8:00 PM77 °FPassing clouds.3 mph69%29.89 "HgN/A
7:00 PM77 °FPassing clouds.6 mph69%29.86 "HgN/A
6:00 PM81 °FPassing clouds.6 mph62%29.86 "HgN/A
5:00 PM82 °FPassing clouds.8 mph58%29.86 "HgN/A
4:00 PM84 °FSunny.8 mph58%29.86 "Hg10 mi
3:00 PM84 °FPassing clouds.8 mph58%29.86 "HgN/A
Weather by CustomWeather, © 2014

See weather overview